Location: Bemmer
(51.5498°N, 5.6249°E)
Time: 16:19:12
(UTC+00:00)

USA 308 - Pass Details

Date: 03 March 2021
Orbit: 568 x 576 km, 54.0° (Epoch: 13 April)

Event Time Altitude Azimuth Distance (km) Brightness Sun altitude
Rises 18:26:14 0° 267° (W) 2,776 8.6 -10.8°
Reaches altitude 10° 18:28:30 10° 270° (W) 1,878 7.1 -11.2°
Maximum altitude 18:32:45 64° 352° (N) 634 3.1 -11.8°
Enters shadow 18:35:58 17° 73° (ENE) 1,485 4.4 -12.3°
